Time,TemperatureF,DewpointF,PressureIn,WindDirection,WindDirectionDegrees,WindSpeedMPH,WindSpeedGustMPH,Humidity,HourlyPrecipIn,Conditions,Clouds,dailyrainin,SoftwareType,DateUTC
2013-11-12 00:01:00,51.8,41.2,30.03,NNE,12,0.0,0.0,67,0.00,,CLR,0.00,VWS V14.01,2013-11-12 08:01:00,
2013-11-12 00:07:00,51.4,40.5,30.03,NNE,12,0.0,0.0,66,0.00,,CLR,0.00,VWS V14.01,2013-11-12 08:07:00,
2013-11-12 00:12:00,51.2,40.7,30.03,NNE,12,0.0,0.0,67,0.00,,CLR,0.00,VWS V14.01,2013-11-12 08:12:00,
2013-11-12 00:17:00,51.2,40.7,30.06,NNE,12,0.0,0.0,67,0.00,,CLR,0.00,VWS V14.01,2013-11-12 08:17:00,
2013-11-12 00:22:00,51.1,40.5,30.06,NNE,12,0.0,0.0,67,0.00,,CLR,0.00,VWS V14.01,2013-11-12 08:22:00,
2013-11-12 00:27:00,51.1,40.5,30.06,NNE,12,0.0,0.0,67,0.00,,CLR,0.00,VWS V14.01,2013-11-12 08:27:00,
2013-11-12 00:33:00,50.9,40.7,30.06,NNE,12,0.0,0.0,68,0.00,,CLR,0.00,VWS V14.01,2013-11-12 08:33:00,
2013-11-12 00:38:00,50.9,40.7,30.06,NNE,12,0.0,0.0,68,0.00,,CLR,0.00,VWS V14.01,2013-11-12 08:38:00,
2013-11-12 00:44:00,50.7,40.5,30.06,NNE,12,0.0,0.0,68,0.00,,CLR,0.00,VWS V14.01,2013-11-12 08:44:00,
2013-11-12 00:50:00,50.5,40.4,30.06,NNE,12,0.0,0.0,68,0.00,,CLR,0.00,VWS V14.01,2013-11-12 08:50:00,
2013-11-12 00:55:00,50.5,40.4,30.06,NNE,12,0.0,0.0,68,0.00,,CLR,0.00,VWS V14.01,2013-11-12 08:55:00,
2013-11-12 01:00:00,50.5,40.4,30.06,NNE,12,0.0,0.0,68,0.00,,CLR,0.00,VWS V14.01,2013-11-12 09:00:00,
2013-11-12 01:05:00,50.3,40.2,30.06,NNE,12,0.0,0.0,68,0.00,,CLR,0.00,VWS V14.01,2013-11-12 09:05:00,
2013-11-12 01:11:00,50.7,41.3,30.06,NNE,12,0.0,0.0,70,0.00,,CLR,0.00,VWS V14.01,2013-11-12 09:11:00,
2013-11-12 01:17:00,50.7,42.0,30.06,West,274,0.0,0.0,72,0.00,,CLR,0.00,VWS V14.01,2013-11-12 09:17:00,
2013-11-12 01:22:00,50.5,41.8,30.06,West,274,0.0,0.0,72,0.00,,CLR,0.00,VWS V14.01,2013-11-12 09:22:00,
2013-11-12 01:28:00,50.2,41.1,30.06,West,274,0.0,0.0,71,0.00,,CLR,0.00,VWS V14.01,2013-11-12 09:28:00,
2013-11-12 01:33:00,50.0,41.0,30.06,West,274,0.0,0.0,71,0.00,,CLR,0.00,VWS V14.01,2013-11-12 09:33:00,
2013-11-12 01:39:00,49.8,40.8,30.06,West,274,0.0,0.0,71,0.00,,CLR,0.00,VWS V14.01,2013-11-12 09:39:00,
2013-11-12 01:45:00,50.0,41.0,30.06,West,274,0.0,0.0,71,0.00,,CLR,0.00,VWS V14.01,2013-11-12 09:45:00,
2013-11-12 01:50:00,49.8,40.8,30.06,West,274,0.0,0.0,71,0.00,,CLR,0.00,VWS V14.01,2013-11-12 09:50:00,
2013-11-12 01:56:00,49.6,41.0,30.06,West,274,0.0,0.0,72,0.00,,CLR,0.00,VWS V14.01,2013-11-12 09:56:00,
2013-11-12 02:01:00,49.4,40.8,30.03,West,274,0.0,0.0,72,0.00,,CLR,0.00,VWS V14.01,2013-11-12 10:01:00,
2013-11-12 02:06:00,49.8,41.5,30.03,West,274,0.0,0.0,73,0.00,,CLR,0.00,VWS V14.01,2013-11-12 10:06:00,
2013-11-12 02:11:00,49.6,41.7,30.03,West,274,0.0,0.0,74,0.00,,CLR,0.00,VWS V14.01,2013-11-12 10:11:00,
2013-11-12 02:16:00,49.6,41.7,30.03,West,274,0.0,0.0,74,0.00,,CLR,0.00,VWS V14.01,2013-11-12 10:16:00,
2013-11-12 02:21:00,49.6,41.3,30.03,West,274,0.0,0.0,73,0.00,,CLR,0.00,VWS V14.01,2013-11-12 10:21:00,
2013-11-12 02:27:00,49.6,41.7,30.03,West,274,0.0,0.0,74,0.00,,CLR,0.00,VWS V14.01,2013-11-12 10:27:00,
2013-11-12 02:32:00,49.8,41.9,30.06,West,279,0.0,0.0,74,0.00,,CLR,0.00,VWS V14.01,2013-11-12 10:32:00,
2013-11-12 02:38:00,50.0,42.0,30.06,West,279,0.0,0.0,74,0.00,,CLR,0.00,VWS V14.01,2013-11-12 10:38:00,
2013-11-12 02:43:00,50.2,42.5,30.06,NW,312,3.6,3.6,75,0.00,,CLR,0.00,VWS V14.01,2013-11-12 10:43:00,
2013-11-12 02:49:00,50.2,42.9,30.06,NW,313,0.0,2.2,76,0.00,,CLR,0.00,VWS V14.01,2013-11-12 10:49:00,
2013-11-12 02:54:00,50.2,42.9,30.06,NW,313,0.0,0.0,76,0.00,,CLR,0.00,VWS V14.01,2013-11-12 10:54:00,
2013-11-12 03:00:00,50.0,42.4,30.06,NW,313,0.0,0.0,75,0.00,,CLR,0.00,VWS V14.01,2013-11-12 11:00:00,
2013-11-12 03:06:00,49.8,42.2,30.06,NW,313,0.0,0.0,75,0.00,,CLR,0.00,VWS V14.01,2013-11-12 11:06:00,
2013-11-12 03:11:00,50.0,42.7,30.06,NW,313,0.0,0.0,76,0.00,,CLR,0.00,VWS V14.01,2013-11-12 11:11:00,
2013-11-12 03:17:00,50.0,42.7,30.06,NW,313,0.0,0.0,76,0.00,,CLR,0.00,VWS V14.01,2013-11-12 11:17:00,
2013-11-12 03:23:00,49.8,42.5,30.06,NW,313,0.0,0.0,76,0.00,,CLR,0.00,VWS V14.01,2013-11-12 11:23:00,
2013-11-12 03:28:00,50.0,42.7,30.06,NW,313,0.0,0.0,76,0.00,,CLR,0.00,VWS V14.01,2013-11-12 11:28:00,
2013-11-12 03:34:00,50.3,44.1,30.06,West,277,0.0,0.0,79,0.00,,CLR,0.00,VWS V14.01,2013-11-12 11:34:00,
2013-11-12 03:39:00,50.0,43.7,30.06,West,277,0.0,0.0,79,0.00,,CLR,0.00,VWS V14.01,2013-11-12 11:39:00,
2013-11-12 03:45:00,49.6,43.4,30.06,West,277,0.0,0.0,79,0.00,,CLR,0.00,VWS V14.01,2013-11-12 11:45:00,
2013-11-12 03:50:00,49.6,43.4,30.06,West,277,0.0,0.0,79,0.00,,CLR,0.00,VWS V14.01,2013-11-12 11:50:00,
2013-11-12 03:56:00,49.6,43.4,30.06,West,277,0.0,0.0,79,0.00,,CLR,0.00,VWS V14.01,2013-11-12 11:56:00,
2013-11-12 04:01:00,49.8,43.6,30.06,West,277,0.0,0.0,79,0.00,,CLR,0.00,VWS V14.01,2013-11-12 12:01:00,
2013-11-12 04:06:00,50.2,44.2,30.06,West,277,0.0,0.0,80,0.00,,CLR,0.00,VWS V14.01,2013-11-12 12:06:00,
2013-11-12 04:12:00,49.8,43.9,30.06,West,277,0.0,0.0,80,0.00,,CLR,0.00,VWS V14.01,2013-11-12 12:12:00,
2013-11-12 04:17:00,49.6,43.7,30.06,West,277,0.0,0.0,80,0.00,,CLR,0.00,VWS V14.01,2013-11-12 12:17:00,
2013-11-12 04:23:00,49.4,43.5,30.06,ENE,74,0.0,0.0,80,0.00,,CLR,0.00,VWS V14.01,2013-11-12 12:23:00,
2013-11-12 04:28:00,49.4,43.5,30.06,ENE,74,0.0,0.0,80,0.00,,CLR,0.00,VWS V14.01,2013-11-12 12:28:00,
2013-11-12 04:34:00,49.3,43.4,30.03,ENE,74,0.0,0.0,80,0.00,,CLR,0.00,VWS V14.01,2013-11-12 12:34:00,
2013-11-12 04:40:00,49.1,43.2,30.03,ENE,74,0.0,0.0,80,0.00,,CLR,0.00,VWS V14.01,2013-11-12 12:40:00,
2013-11-12 04:45:00,48.9,43.0,30.03,ENE,74,0.0,0.0,80,0.00,,CLR,0.00,VWS V14.01,2013-11-12 12:45:00,
2013-11-12 04:51:00,48.7,42.8,30.03,ENE,74,0.0,0.0,80,0.00,,CLR,0.00,VWS V14.01,2013-11-12 12:51:00,
2013-11-12 04:56:00,48.7,42.8,30.03,ENE,74,0.0,0.0,80,0.00,,CLR,0.00,VWS V14.01,2013-11-12 12:56:00,
2013-11-12 05:02:00,48.9,43.0,30.06,ENE,74,0.0,0.0,80,0.00,,CLR,0.00,VWS V14.01,2013-11-12 13:02:00,
2013-11-12 05:07:00,48.7,42.8,30.06,ENE,74,0.0,0.0,80,0.00,,CLR,0.00,VWS V14.01,2013-11-12 13:07:00,
2013-11-12 05:13:00,48.5,42.7,30.06,ENE,74,0.0,0.0,80,0.00,,CLR,0.00,VWS V14.01,2013-11-12 13:13:00,
2013-11-12 05:19:00,48.5,42.7,30.03,ENE,74,0.0,0.0,80,0.00,,CLR,0.00,VWS V14.01,2013-11-12 13:19:00,
2013-11-12 05:24:00,48.7,43.2,30.03,ENE,74,0.0,0.0,81,0.00,,CLR,0.00,VWS V14.01,2013-11-12 13:24:00,
2013-11-12 05:30:00,49.4,44.2,30.06,West,265,3.1,3.6,82,0.00,,CLR,0.00,VWS V14.01,2013-11-12 13:30:00,
2013-11-12 05:36:00,49.8,44.5,30.06,West,267,2.7,3.6,82,0.00,,CLR,0.00,VWS V14.01,2013-11-12 13:36:00,
2013-11-12 05:41:00,49.8,44.8,30.06,West,267,0.0,0.0,83,0.00,,CLR,0.00,VWS V14.01,2013-11-12 13:41:00,
2013-11-12 05:47:00,49.6,44.7,30.06,West,267,0.0,0.0,83,0.00,,CLR,0.00,VWS V14.01,2013-11-12 13:47:00,
2013-11-12 05:52:00,49.6,44.7,30.06,West,267,0.0,0.0,83,0.00,,CLR,0.00,VWS V14.01,2013-11-12 13:52:00,
2013-11-12 05:58:00,50.0,45.0,30.06,West,267,0.0,0.0,83,0.00,,CLR,0.00,VWS V14.01,2013-11-12 13:58:00,
2013-11-12 06:04:00,50.0,45.3,30.06,West,267,0.0,0.0,84,0.00,,CLR,0.00,VWS V14.01,2013-11-12 14:04:00,
2013-11-12 06:09:00,50.0,45.3,30.06,West,267,0.0,0.0,84,0.00,,CLR,0.00,VWS V14.01,2013-11-12 14:09:00,
2013-11-12 06:15:00,50.2,45.5,30.09,West,267,0.0,0.0,84,0.00,,CLR,0.00,VWS V14.01,2013-11-12 14:15:00,
2013-11-12 06:21:00,50.0,45.0,30.09,West,267,0.0,0.0,83,0.00,,CLR,0.00,VWS V14.01,2013-11-12 14:21:00,
2013-11-12 06:26:00,50.3,45.7,30.09,West,267,0.0,0.0,84,0.00,,CLR,0.00,VWS V14.01,2013-11-12 14:26:00,
2013-11-12 06:32:00,50.3,45.7,30.09,West,267,2.7,2.7,84,0.00,,CLR,0.00,VWS V14.01,2013-11-12 14:32:00,
2013-11-12 06:37:00,50.3,45.7,30.09,West,267,0.0,2.7,84,0.00,,CLR,0.00,VWS V14.01,2013-11-12 14:37:00,
2013-11-12 06:43:00,50.5,45.9,30.09,West,267,0.0,0.0,84,0.00,,CLR,0.00,VWS V14.01,2013-11-12 14:43:00,
2013-11-12 06:48:00,50.5,45.9,30.09,West,267,0.0,0.0,84,0.00,,CLR,0.00,VWS V14.01,2013-11-12 14:48:00,
2013-11-12 06:54:00,50.7,46.0,30.09,West,267,0.0,0.0,84,0.00,,CLR,0.00,VWS V14.01,2013-11-12 14:54:00,
2013-11-12 07:00:00,50.9,46.2,30.09,West,267,0.0,0.0,84,0.00,,CLR,0.00,VWS V14.01,2013-11-12 15:00:00,
2013-11-12 07:05:00,51.1,46.4,30.09,West,267,0.0,0.0,84,0.00,,CLR,0.00,VWS V14.01,2013-11-12 15:05:00,
2013-11-12 07:10:00,51.1,46.4,30.09,West,267,0.0,0.0,84,0.00,,CLR,0.00,VWS V14.01,2013-11-12 15:10:00,
2013-11-12 07:15:00,51.4,46.8,30.09,NNE,13,2.7,2.7,84,0.00,,CLR,0.00,VWS V14.01,2013-11-12 15:15:00,
2013-11-12 07:20:00,51.8,47.1,30.09,NNE,13,2.7,2.7,84,0.00,,CLR,0.00,VWS V14.01,2013-11-12 15:20:00,
2013-11-12 07:25:00,52.0,47.3,30.09,NNE,13,0.0,0.0,84,0.00,,CLR,0.00,VWS V14.01,2013-11-12 15:25:00,
2013-11-12 07:30:00,52.5,47.8,30.12,North,353,0.0,2.7,84,0.00,,CLR,0.00,VWS V14.01,2013-11-12 15:30:00,
2013-11-12 07:36:00,52.9,48.2,30.12,North,353,0.0,0.0,84,0.00,,CLR,0.00,VWS V14.01,2013-11-12 15:36:00,
2013-11-12 07:42:00,53.2,48.5,30.12,North,353,0.0,0.0,84,0.00,,CLR,0.00,VWS V14.01,2013-11-12 15:42:00,
2013-11-12 07:47:00,53.8,49.0,30.12,NNW,345,2.7,3.1,84,0.00,,CLR,0.00,VWS V14.01,2013-11-12 15:47:00,
2013-11-12 07:53:00,54.1,49.4,30.12,NNE,32,2.7,3.1,84,0.00,,CLR,0.00,VWS V14.01,2013-11-12 15:53:00,
2013-11-12 07:59:00,54.3,49.6,30.12,ENE,68,0.0,2.2,84,0.00,,CLR,0.00,VWS V14.01,2013-11-12 15:59:00,
2013-11-12 08:04:00,54.7,49.9,30.12,NE,50,0.0,2.2,84,0.00,,CLR,0.00,VWS V14.01,2013-11-12 16:04:00,
2013-11-12 08:10:00,54.8,50.1,30.12,NE,50,0.0,0.0,84,0.00,,CLR,0.00,VWS V14.01,2013-11-12 16:10:00,
2013-11-12 08:15:00,55.2,50.1,30.12,NE,50,0.0,0.0,83,0.00,,CLR,0.00,VWS V14.01,2013-11-12 16:15:00,
2013-11-12 08:21:00,55.6,50.5,30.12,NE,50,0.0,0.0,83,0.00,,CLR,0.00,VWS V14.01,2013-11-12 16:21:00,
2013-11-12 08:27:00,55.9,50.8,30.12,NE,50,0.0,0.0,83,0.00,,CLR,0.00,VWS V14.01,2013-11-12 16:27:00,
2013-11-12 08:32:00,56.3,51.2,30.12,NE,50,0.0,0.0,83,0.00,,CLR,0.00,VWS V14.01,2013-11-12 16:32:00,
2013-11-12 08:38:00,56.6,51.5,30.12,NE,50,0.0,0.0,83,0.00,,BKN200,0.00,VWS V14.01,2013-11-12 16:38:00,
2013-11-12 08:43:00,56.5,51.4,30.12,West,278,0.0,0.0,83,0.00,,BKN200,0.00,VWS V14.01,2013-11-12 16:43:00,
2013-11-12 08:49:00,57.4,51.9,30.12,WNW,288,0.0,0.0,82,0.00,,BKN200,0.00,VWS V14.01,2013-11-12 16:49:00,
2013-11-12 08:55:00,57.5,51.1,30.12,West,262,0.0,0.0,79,0.00,,BKN200,0.00,VWS V14.01,2013-11-12 16:55:00,
2013-11-12 09:00:00,58.1,51.3,30.12,West,262,0.0,0.0,78,0.00,,BKN200,0.00,VWS V14.01,2013-11-12 17:00:00,
2013-11-12 09:06:00,58.6,50.0,30.12,West,262,0.0,0.0,73,0.00,,BKN200,0.00,VWS V14.01,2013-11-12 17:06:00,
2013-11-12 09:11:00,59.2,50.2,30.12,West,262,0.0,0.0,72,0.00,,BKN200,0.00,VWS V14.01,2013-11-12 17:11:00,
2013-11-12 09:17:00,59.9,50.5,30.12,West,262,0.0,0.0,71,0.00,,BKN200,0.00,VWS V14.01,2013-11-12 17:17:00,
2013-11-12 09:22:00,60.4,50.6,30.12,West,262,0.0,0.0,70,0.00,,BKN200,0.00,VWS V14.01,2013-11-12 17:22:00,
2013-11-12 09:28:00,61.0,45.2,30.12,West,262,0.0,0.0,56,0.00,,BKN200,0.00,VWS V14.01,2013-11-12 17:28:00,
2013-11-12 09:33:00,61.3,43.1,30.12,West,262,0.0,0.0,51,0.00,,BKN200,0.00,VWS V14.01,2013-11-12 17:33:00,
2013-11-12 09:38:00,62.2,43.9,30.12,West,262,0.0,0.0,51,0.00,,BKN200,0.00,VWS V14.01,2013-11-12 17:38:00,
2013-11-12 09:44:00,62.4,35.1,30.12,West,262,2.7,3.1,36,0.00,,BKN200,0.00,VWS V14.01,2013-11-12 17:44:00,
2013-11-12 09:50:00,63.3,38.6,30.12,West,262,0.0,0.0,40,0.00,,BKN200,0.00,VWS V14.01,2013-11-12 17:50:00,
2013-11-12 09:55:00,63.7,37.6,30.12,West,262,0.0,0.0,38,0.00,,BKN200,0.00,VWS V14.01,2013-11-12 17:55:00,
2013-11-12 10:00:00,64.0,37.2,30.09,NNW,340,3.1,3.1,37,0.00,,BKN200,0.00,VWS V14.01,2013-11-12 18:00:00,
2013-11-12 10:05:00,64.6,37.0,30.09,North,11,3.6,3.6,36,0.00,,BKN200,0.00,VWS V14.01,2013-11-12 18:05:00,
2013-11-12 10:11:00,64.7,37.2,30.09,NE,46,4.0,5.4,36,0.00,,BKN200,0.00,VWS V14.01,2013-11-12 18:11:00,
2013-11-12 10:17:00,65.1,36.8,30.09,NNE,20,0.0,2.2,35,0.00,,BKN200,0.00,VWS V14.01,2013-11-12 18:17:00,
2013-11-12 10:23:00,65.5,36.4,30.09,North,357,2.7,3.1,34,0.00,,BKN200,0.00,VWS V14.01,2013-11-12 18:23:00,
2013-11-12 10:28:00,65.6,36.5,30.09,NNE,26,3.1,3.1,34,0.00,,BKN200,0.00,VWS V14.01,2013-11-12 18:28:00,
2013-11-12 10:33:00,66.0,36.1,30.09,NE,37,3.6,4.0,33,0.00,,BKN200,0.00,VWS V14.01,2013-11-12 18:33:00,
2013-11-12 10:38:00,66.2,36.3,30.09,NNW,332,2.7,3.6,33,0.00,,CLR,0.00,VWS V14.01,2013-11-12 18:38:00,
2013-11-12 10:44:00,66.5,35.8,30.09,West,281,2.7,4.0,32,0.00,,CLR,0.00,VWS V14.01,2013-11-12 18:44:00,
2013-11-12 10:49:00,66.7,35.2,30.09,North,353,0.0,4.0,31,0.00,,CLR,0.00,VWS V14.01,2013-11-12 18:49:00,
2013-11-12 10:55:00,67.1,34.6,30.09,NNW,327,4.0,4.9,30,0.00,,CLR,0.00,VWS V14.01,2013-11-12 18:55:00,
2013-11-12 11:00:00,67.3,33.1,30.09,WSW,254,3.6,3.6,28,0.00,,CLR,0.00,VWS V14.01,2013-11-12 19:00:00,
2013-11-12 11:06:00,67.6,33.4,30.09,North,353,0.0,0.0,28,0.00,,CLR,0.00,VWS V14.01,2013-11-12 19:06:00,
2013-11-12 11:11:00,68.0,30.9,30.09,WSW,249,2.2,4.0,25,0.00,,CLR,0.00,VWS V14.01,2013-11-12 19:11:00,
2013-11-12 11:17:00,68.3,31.2,30.09,North,353,0.0,0.0,25,0.00,,CLR,0.00,VWS V14.01,2013-11-12 19:17:00,
2013-11-12 11:22:00,68.7,30.5,30.09,NNW,335,2.7,3.6,24,0.00,,CLR,0.00,VWS V14.01,2013-11-12 19:22:00,
2013-11-12 11:27:00,68.9,29.6,30.09,NW,321,2.7,3.1,23,0.00,,CLR,0.00,VWS V14.01,2013-11-12 19:27:00,
2013-11-12 11:33:00,69.1,28.6,30.06,NNW,345,2.2,4.9,22,0.00,,CLR,0.00,VWS V14.01,2013-11-12 19:33:00,
2013-11-12 11:38:00,69.4,29.0,30.06,NNW,346,0.0,0.0,22,0.00,,CLR,0.00,VWS V14.01,2013-11-12 19:38:00,
2013-11-12 11:44:00,69.8,28.1,30.06,North,350,0.0,2.2,21,0.00,,CLR,0.00,VWS V14.01,2013-11-12 19:44:00,
2013-11-12 11:49:00,70.3,26.1,30.06,North,350,0.0,0.0,19,0.00,,CLR,0.00,VWS V14.01,2013-11-12 19:49:00,
2013-11-12 11:55:00,70.7,28.9,30.06,North,350,0.0,0.0,21,0.00,,CLR,0.00,VWS V14.01,2013-11-12 19:55:00,
2013-11-12 12:00:00,71.0,26.7,30.06,North,350,0.0,0.0,19,0.00,,CLR,0.00,VWS V14.01,2013-11-12 20:00:00,
2013-11-12 12:05:00,71.2,26.9,30.06,WSW,258,0.0,0.0,19,0.00,,CLR,0.00,VWS V14.01,2013-11-12 20:05:00,
2013-11-12 12:10:00,71.6,23.0,30.06,WSW,258,0.0,0.0,16,0.00,,CLR,0.00,VWS V14.01,2013-11-12 20:10:00,
2013-11-12 12:16:00,71.8,23.2,30.06,NW,307,0.0,0.0,16,0.00,,CLR,0.00,VWS V14.01,2013-11-12 20:16:00,
2013-11-12 12:22:00,72.1,23.5,30.06,North,0,0.0,0.0,16,0.00,,CLR,0.00,VWS V14.01,2013-11-12 20:22:00,
2013-11-12 12:27:00,72.1,18.6,30.06,NNW,339,0.0,0.0,13,0.00,,CLR,0.00,VWS V14.01,2013-11-12 20:27:00,
2013-11-12 12:33:00,72.3,18.7,30.03,NNW,331,3.6,3.6,13,0.00,,CLR,0.00,VWS V14.01,2013-11-12 20:33:00,
2013-11-12 12:38:00,72.3,18.7,30.03,North,353,3.1,4.0,13,0.00,,,0.00,VWS V14.01,2013-11-12 20:38:00,
2013-11-12 12:43:00,72.5,18.9,30.03,NNE,24,2.7,4.0,13,0.00,,,0.00,VWS V14.01,2013-11-12 20:43:00,
2013-11-12 12:48:00,72.8,19.2,30.03,NNE,23,0.0,2.2,13,0.00,,,0.00,VWS V14.01,2013-11-12 20:48:00,
2013-11-12 12:54:00,73.0,19.3,30.03,North,349,0.0,2.7,13,0.00,,,0.00,VWS V14.01,2013-11-12 20:54:00,
2013-11-12 12:59:00,73.2,19.5,30.03,West,270,0.0,0.0,13,0.00,,,0.00,VWS V14.01,2013-11-12 20:59:00,
2013-11-12 13:05:00,73.4,19.6,30.03,WSW,249,0.0,0.0,13,0.00,,,0.00,VWS V14.01,2013-11-12 21:05:00,
2013-11-12 13:10:00,73.9,20.0,30.03,WSW,249,0.0,0.0,13,0.00,,,0.00,VWS V14.01,2013-11-12 21:10:00,
2013-11-12 13:16:00,74.6,20.6,30.00,North,6,0.0,0.0,13,0.00,,,0.00,VWS V14.01,2013-11-12 21:16:00,
2013-11-12 13:21:00,75.0,20.9,30.00,North,6,0.0,0.0,13,0.00,,,0.00,VWS V14.01,2013-11-12 21:21:00,
2013-11-12 13:26:00,75.0,20.9,30.00,NNE,27,0.0,0.0,13,0.00,,,0.00,VWS V14.01,2013-11-12 21:26:00,
2013-11-12 13:32:00,75.0,20.9,30.00,NNE,27,0.0,0.0,13,0.00,,,0.00,VWS V14.01,2013-11-12 21:32:00,
2013-11-12 13:37:00,75.2,14.9,30.00,NNE,27,0.0,0.0,10,0.00,,,0.00,VWS V14.01,2013-11-12 21:37:00,
2013-11-12 13:43:00,75.4,15.1,30.00,WSW,253,0.0,0.0,10,0.00,,,0.00,VWS V14.01,2013-11-12 21:43:00,
2013-11-12 13:48:00,74.8,14.6,30.00,WSW,253,0.0,0.0,10,0.00,,,0.00,VWS V14.01,2013-11-12 21:48:00,
2013-11-12 13:54:00,74.5,14.4,30.00,WSW,252,3.1,3.1,10,0.00,,,0.00,VWS V14.01,2013-11-12 21:54:00,
2013-11-12 13:59:00,74.5,14.4,30.00,West,278,0.0,0.0,10,0.00,,,0.00,VWS V14.01,2013-11-12 21:59:00,
2013-11-12 14:04:00,74.6,14.5,30.00,West,278,0.0,0.0,10,0.00,,,0.00,VWS V14.01,2013-11-12 22:04:00,
2013-11-12 14:10:00,74.6,14.5,30.00,West,278,0.0,0.0,10,0.00,,,0.00,VWS V14.01,2013-11-12 22:10:00,
2013-11-12 14:15:00,74.5,14.4,30.00,West,278,0.0,0.0,10,0.00,,,0.00,VWS V14.01,2013-11-12 22:15:00,
2013-11-12 14:21:00,74.3,14.2,30.00,West,275,3.1,3.1,10,0.00,,,0.00,VWS V14.01,2013-11-12 22:21:00,
2013-11-12 14:26:00,74.3,14.2,30.00,West,272,0.0,0.0,10,0.00,,,0.00,VWS V14.01,2013-11-12 22:26:00,
2013-11-12 14:32:00,74.3,14.2,30.00,West,277,3.6,3.6,10,0.00,,,0.00,VWS V14.01,2013-11-12 22:32:00,
2013-11-12 14:37:00,74.5,14.4,30.00,West,266,0.0,0.0,10,0.00,,,0.00,VWS V14.01,2013-11-12 22:37:00,
2013-11-12 14:42:00,74.6,14.5,30.00,NW,306,3.1,3.1,10,0.00,,,0.00,VWS V14.01,2013-11-12 22:42:00,
2013-11-12 14:47:00,74.8,14.6,30.00,WSW,253,0.0,0.0,10,0.00,,,0.00,VWS V14.01,2013-11-12 22:47:00,
2013-11-12 14:53:00,74.8,14.6,30.00,WSW,253,0.0,0.0,10,0.00,,,0.00,VWS V14.01,2013-11-12 22:53:00,
2013-11-12 14:59:00,74.8,14.6,30.00,WSW,253,2.7,2.7,10,0.00,,,0.00,VWS V14.01,2013-11-12 22:59:00,
2013-11-12 15:04:00,74.6,20.6,30.00,West,259,2.7,4.0,13,0.00,,,0.00,VWS V14.01,2013-11-12 23:04:00,
2013-11-12 15:10:00,74.6,20.6,30.00,West,274,2.7,3.6,13,0.00,,,0.00,VWS V14.01,2013-11-12 23:10:00,
2013-11-12 15:15:00,74.6,20.6,30.00,WSW,252,3.6,3.6,13,0.00,,,0.00,VWS V14.01,2013-11-12 23:15:00,
2013-11-12 15:21:00,73.9,23.4,30.00,WSW,251,4.0,5.4,15,0.00,,,0.00,VWS V14.01,2013-11-12 23:21:00,
2013-11-12 15:27:00,73.7,27.6,30.00,West,280,5.8,5.8,18,0.00,,,0.00,VWS V14.01,2013-11-12 23:27:00,
2013-11-12 15:32:00,73.0,30.8,30.00,NW,316,5.8,7.6,21,0.00,,,0.00,VWS V14.01,2013-11-12 23:32:00,
2013-11-12 15:38:00,72.7,30.5,30.00,WNW,290,6.3,6.3,21,0.00,,,0.00,VWS V14.01,2013-11-12 23:38:00,
2013-11-12 15:43:00,71.8,29.8,30.00,West,265,5.4,5.4,21,0.00,,,0.00,VWS V14.01,2013-11-12 23:43:00,
2013-11-12 15:48:00,71.4,29.5,30.00,WSW,258,5.4,6.3,21,0.00,,,0.00,VWS V14.01,2013-11-12 23:48:00,
2013-11-12 15:53:00,71.2,29.3,30.00,WNW,298,4.0,4.0,21,0.00,,,0.00,VWS V14.01,2013-11-12 23:53:00,
2013-11-12 15:58:00,70.7,26.4,30.00,NW,315,3.6,5.4,19,0.00,,,0.00,VWS V14.01,2013-11-12 23:58:00,
2013-11-12 16:03:00,71.0,26.7,30.00,West,270,3.6,6.3,19,0.00,,,0.00,VWS V14.01,2013-11-13 00:03:00,
2013-11-12 16:09:00,70.5,26.3,30.00,West,272,3.1,4.9,19,0.00,,CLR,0.00,VWS V14.01,2013-11-13 00:09:00,
2013-11-12 16:14:00,70.7,26.4,30.00,WNW,299,6.3,6.7,19,0.00,,CLR,0.00,VWS V14.01,2013-11-13 00:14:00,
2013-11-12 16:19:00,70.5,22.2,30.00,NW,304,3.6,5.4,16,0.00,,CLR,0.00,VWS V14.01,2013-11-13 00:19:00,
2013-11-12 16:24:00,70.3,26.1,30.00,NW,306,5.4,5.4,19,0.00,,CLR,0.00,VWS V14.01,2013-11-13 00:24:00,
2013-11-12 16:29:00,70.0,25.9,30.00,WNW,285,3.1,3.6,19,0.00,,CLR,0.00,VWS V14.01,2013-11-13 00:29:00,
2013-11-12 16:35:00,69.6,25.5,30.00,West,277,2.7,4.0,19,0.00,,CLR,0.00,VWS V14.01,2013-11-13 00:35:00,
2013-11-12 16:40:00,69.4,29.0,30.00,NW,306,3.1,4.0,22,0.00,,CLR,0.00,VWS V14.01,2013-11-13 00:40:00,
2013-11-12 16:46:00,69.1,28.6,30.00,West,272,0.0,3.1,22,0.00,,CLR,0.00,VWS V14.01,2013-11-13 00:46:00,
2013-11-12 16:52:00,68.9,28.5,30.00,NW,324,0.0,0.0,22,0.00,,CLR,0.00,VWS V14.01,2013-11-13 00:52:00,
2013-11-12 16:57:00,68.5,28.2,30.00,NW,326,0.0,0.0,22,0.00,,CLR,0.00,VWS V14.01,2013-11-13 00:57:00,
2013-11-12 17:02:00,68.3,28.0,30.00,NW,325,0.0,0.0,22,0.00,,CLR,0.00,VWS V14.01,2013-11-13 01:02:00,
2013-11-12 17:07:00,68.0,28.8,30.00,NW,325,0.0,0.0,23,0.00,,CLR,0.00,VWS V14.01,2013-11-13 01:07:00,
2013-11-12 17:13:00,67.6,29.6,30.00,WNW,298,0.0,0.0,24,0.00,,CLR,0.00,VWS V14.01,2013-11-13 01:13:00,
2013-11-12 17:18:00,67.3,29.3,30.00,WNW,301,0.0,0.0,24,0.00,,CLR,0.00,VWS V14.01,2013-11-13 01:18:00,
2013-11-12 17:24:00,66.9,29.0,30.00,WNW,301,0.0,0.0,24,0.00,,CLR,0.00,VWS V14.01,2013-11-13 01:24:00,
2013-11-12 17:29:00,66.5,28.7,30.00,WNW,301,0.0,0.0,24,0.00,,CLR,0.00,VWS V14.01,2013-11-13 01:29:00,
2013-11-12 17:35:00,66.0,29.2,30.00,WNW,301,0.0,0.0,25,0.00,,CLR,0.00,VWS V14.01,2013-11-13 01:35:00,
2013-11-12 17:41:00,65.6,28.9,30.00,WNW,301,0.0,0.0,25,0.00,,CLR,0.00,VWS V14.01,2013-11-13 01:41:00,
2013-11-12 17:47:00,65.3,29.5,30.00,WNW,299,0.0,0.0,26,0.00,,CLR,0.00,VWS V14.01,2013-11-13 01:47:00,
2013-11-12 17:52:00,65.1,29.4,30.00,WNW,299,0.0,0.0,26,0.00,,CLR,0.00,VWS V14.01,2013-11-13 01:52:00,
2013-11-12 17:58:00,64.7,30.0,30.00,WNW,299,0.0,0.0,27,0.00,,CLR,0.00,VWS V14.01,2013-11-13 01:58:00,
2013-11-12 18:03:00,64.4,29.7,30.00,WNW,299,0.0,0.0,27,0.00,,CLR,0.00,VWS V14.01,2013-11-13 02:03:00,
2013-11-12 18:08:00,64.0,32.0,30.00,WNW,299,0.0,0.0,30,0.00,,CLR,0.00,VWS V14.01,2013-11-13 02:08:00,
2013-11-12 18:13:00,63.7,33.3,30.00,WNW,299,0.0,0.0,32,0.00,,CLR,0.00,VWS V14.01,2013-11-13 02:13:00,
2013-11-12 18:18:00,63.3,33.7,30.00,WNW,299,0.0,0.0,33,0.00,,CLR,0.00,VWS V14.01,2013-11-13 02:18:00,
2013-11-12 18:23:00,62.9,33.4,30.00,WNW,299,0.0,0.0,33,0.00,,CLR,0.00,VWS V14.01,2013-11-13 02:23:00,
2013-11-12 18:28:00,62.6,33.1,30.00,WNW,299,0.0,0.0,33,0.00,,CLR,0.00,VWS V14.01,2013-11-13 02:28:00,
2013-11-12 18:34:00,62.2,32.8,30.00,WNW,299,0.0,0.0,33,0.00,,CLR,0.00,VWS V14.01,2013-11-13 02:34:00,
2013-11-12 18:39:00,61.9,33.2,30.00,WNW,299,0.0,0.0,34,0.00,,CLR,0.00,VWS V14.01,2013-11-13 02:39:00,
2013-11-12 18:44:00,61.5,32.9,30.00,WNW,299,0.0,0.0,34,0.00,,CLR,0.00,VWS V14.01,2013-11-13 02:44:00,
2013-11-12 18:49:00,61.1,32.6,30.00,WNW,300,0.0,0.0,34,0.00,,CLR,0.00,VWS V14.01,2013-11-13 02:49:00,
2013-11-12 18:55:00,60.8,33.0,30.00,WNW,300,0.0,0.0,35,0.00,,CLR,0.00,VWS V14.01,2013-11-13 02:55:00,
2013-11-12 19:00:00,60.4,33.4,30.00,WNW,300,0.0,0.0,36,0.00,,CLR,0.00,VWS V14.01,2013-11-13 03:00:00,
2013-11-12 19:06:00,60.1,33.7,30.00,WNW,300,0.0,0.0,37,0.00,,CLR,0.00,VWS V14.01,2013-11-13 03:06:00,
2013-11-12 19:12:00,59.7,34.7,30.00,WNW,300,0.0,0.0,39,0.00,,CLR,0.00,VWS V14.01,2013-11-13 03:12:00,
2013-11-12 19:17:00,59.7,35.4,30.00,WNW,300,0.0,0.0,40,0.00,,CLR,0.00,VWS V14.01,2013-11-13 03:17:00,
2013-11-12 19:23:00,59.3,35.0,30.00,WNW,300,0.0,0.0,40,0.00,,CLR,0.00,VWS V14.01,2013-11-13 03:23:00,
2013-11-12 19:29:00,59.2,34.9,30.00,WNW,300,0.0,0.0,40,0.00,,CLR,0.00,VWS V14.01,2013-11-13 03:29:00,
2013-11-12 19:34:00,59.0,34.7,30.00,WNW,300,0.0,0.0,40,0.00,,CLR,0.00,VWS V14.01,2013-11-13 03:34:00,
2013-11-12 19:39:00,58.8,35.2,30.00,WNW,300,0.0,0.0,41,0.00,,CLR,0.00,VWS V14.01,2013-11-13 03:39:00,
2013-11-12 19:44:00,58.6,35.6,30.00,SW,231,0.0,0.0,42,0.00,,CLR,0.00,VWS V14.01,2013-11-13 03:44:00,
2013-11-12 19:50:00,58.4,35.5,30.00,SW,231,0.0,0.0,42,0.00,,CLR,0.00,VWS V14.01,2013-11-13 03:50:00,
2013-11-12 19:55:00,58.1,35.1,30.00,SW,231,0.0,0.0,42,0.00,,CLR,0.00,VWS V14.01,2013-11-13 03:55:00,
2013-11-12 20:01:00,57.9,35.0,30.00,SW,231,0.0,0.0,42,0.00,,CLR,0.00,VWS V14.01,2013-11-13 04:01:00,
2013-11-12 20:06:00,57.9,36.1,30.00,SW,231,0.0,0.0,44,0.00,,CLR,0.00,VWS V14.01,2013-11-13 04:06:00,
2013-11-12 20:12:00,57.4,35.7,30.00,SW,231,0.0,0.0,44,0.00,,CLR,0.00,VWS V14.01,2013-11-13 04:12:00,
2013-11-12 20:18:00,57.2,35.5,30.00,SW,231,0.0,0.0,44,0.00,,CLR,0.00,VWS V14.01,2013-11-13 04:18:00,
2013-11-12 20:23:00,57.0,35.3,30.00,SW,231,0.0,0.0,44,0.00,,CLR,0.00,VWS V14.01,2013-11-13 04:23:00,
2013-11-12 20:29:00,56.8,35.7,30.00,SW,231,0.0,0.0,45,0.00,,CLR,0.00,VWS V14.01,2013-11-13 04:29:00,
2013-11-12 20:35:00,56.8,36.3,30.00,SW,231,0.0,0.0,46,0.00,,CLR,0.00,VWS V14.01,2013-11-13 04:35:00,
2013-11-12 20:40:00,56.6,36.7,30.00,NW,311,0.0,0.0,47,0.00,,CLR,0.00,VWS V14.01,2013-11-13 04:40:00,
2013-11-12 20:45:00,56.5,36.5,30.03,NW,325,0.0,0.0,47,0.00,,CLR,0.00,VWS V14.01,2013-11-13 04:45:00,
2013-11-12 20:50:00,56.3,36.3,30.03,NNW,335,0.0,0.0,47,0.00,,CLR,0.00,VWS V14.01,2013-11-13 04:50:00,
2013-11-12 20:56:00,56.1,36.2,30.03,NNW,335,0.0,0.0,47,0.00,,CLR,0.00,VWS V14.01,2013-11-13 04:56:00,
2013-11-12 21:01:00,55.9,36.0,30.03,NNW,335,0.0,0.0,47,0.00,,CLR,0.00,VWS V14.01,2013-11-13 05:01:00,
2013-11-12 21:02:00,55.7,36.4,30.03,NNW,335,0.0,0.0,48,0.00,,CLR,0.00,VWS V14.01,2013-11-13 05:02:00,
2013-11-12 21:04:00,55.7,36.4,30.03,NNW,335,0.0,0.0,48,0.00,,CLR,0.00,VWS V14.01,2013-11-13 05:04:00,
2013-11-12 21:07:00,55.6,36.2,30.03,NNW,335,0.0,0.0,48,0.00,,CLR,0.00,VWS V14.01,2013-11-13 05:07:00,
2013-11-12 21:10:00,55.6,36.2,30.03,NNW,335,0.0,0.0,48,0.00,,CLR,0.00,VWS V14.01,2013-11-13 05:10:00,
2013-11-12 21:15:00,55.4,36.0,30.03,NNW,335,0.0,0.0,48,0.00,,CLR,0.00,VWS V14.01,2013-11-13 05:15:00,
2013-11-12 21:17:00,55.4,36.0,30.03,NNW,335,0.0,0.0,48,0.00,,CLR,0.00,VWS V14.01,2013-11-13 05:17:00,
2013-11-12 21:22:00,55.2,36.4,30.03,NNW,335,0.0,0.0,49,0.00,,CLR,0.00,VWS V14.01,2013-11-13 05:22:00,
2013-11-12 21:28:00,55.0,36.2,30.03,NNW,335,0.0,0.0,49,0.00,,CLR,0.00,VWS V14.01,2013-11-13 05:28:00,
2013-11-12 21:34:00,54.8,36.6,30.03,NNW,335,0.0,0.0,50,0.00,,CLR,0.00,VWS V14.01,2013-11-13 05:34:00,
2013-11-12 21:39:00,54.8,36.6,30.03,NNW,335,0.0,0.0,50,0.00,,CLR,0.00,VWS V14.01,2013-11-13 05:39:00,
2013-11-12 21:45:00,54.7,36.9,30.03,NNW,335,0.0,0.0,51,0.00,,CLR,0.00,VWS V14.01,2013-11-13 05:45:00,
2013-11-12 21:50:00,54.5,36.7,30.03,NNW,335,0.0,0.0,51,0.00,,CLR,0.00,VWS V14.01,2013-11-13 05:50:00,
2013-11-12 21:56:00,54.5,36.7,30.03,NNW,335,0.0,0.0,51,0.00,,CLR,0.00,VWS V14.01,2013-11-13 05:56:00,
2013-11-12 22:01:00,54.3,36.6,30.03,NNW,335,0.0,0.0,51,0.00,,CLR,0.00,VWS V14.01,2013-11-13 06:01:00,
2013-11-12 22:06:00,54.1,36.4,30.03,NNW,335,0.0,0.0,51,0.00,,CLR,0.00,VWS V14.01,2013-11-13 06:06:00,
2013-11-12 22:11:00,53.9,36.7,30.03,NNW,335,0.0,0.0,52,0.00,,CLR,0.00,VWS V14.01,2013-11-13 06:11:00,
2013-11-12 22:16:00,53.9,36.7,30.03,NNE,13,0.0,0.0,52,0.00,,CLR,0.00,VWS V14.01,2013-11-13 06:16:00,
2013-11-12 22:21:00,53.9,37.2,30.03,NNE,13,0.0,0.0,53,0.00,,CLR,0.00,VWS V14.01,2013-11-13 06:21:00,
2013-11-12 22:26:00,53.8,37.0,30.03,NNE,13,0.0,0.0,53,0.00,,CLR,0.00,VWS V14.01,2013-11-13 06:26:00,
2013-11-12 22:31:00,53.6,36.9,30.00,NNE,13,0.0,0.0,53,0.00,,CLR,0.00,VWS V14.01,2013-11-13 06:31:00,
2013-11-12 22:37:00,53.4,36.7,30.00,NNE,13,0.0,0.0,53,0.00,,CLR,0.00,VWS V14.01,2013-11-13 06:37:00,
2013-11-12 22:42:00,53.2,37.0,30.00,NNE,12,0.0,0.0,54,0.00,,CLR,0.00,VWS V14.01,2013-11-13 06:42:00,
2013-11-12 22:48:00,53.6,38.7,30.00,NNE,12,0.0,0.0,57,0.00,,CLR,0.00,VWS V14.01,2013-11-13 06:48:00,
2013-11-12 22:53:00,53.2,38.8,30.00,NNE,12,0.0,0.0,58,0.00,,CLR,0.00,VWS V14.01,2013-11-13 06:53:00,
2013-11-12 22:58:00,53.2,38.8,30.00,NNE,12,0.0,0.0,58,0.00,,CLR,0.00,VWS V14.01,2013-11-13 06:58:00,
2013-11-12 23:03:00,53.0,38.7,30.00,NNE,12,0.0,0.0,58,0.00,,CLR,0.00,VWS V14.01,2013-11-13 07:03:00,
2013-11-12 23:09:00,52.7,38.3,30.00,NNE,12,0.0,0.0,58,0.00,,CLR,0.00,VWS V14.01,2013-11-13 07:09:00,
2013-11-12 23:14:00,52.5,38.6,30.00,NNE,13,0.0,0.0,59,0.00,,CLR,0.00,VWS V14.01,2013-11-13 07:14:00,
2013-11-12 23:20:00,52.5,39.0,30.00,NNE,13,0.0,0.0,60,0.00,,CLR,0.00,VWS V14.01,2013-11-13 07:20:00,
2013-11-12 23:25:00,52.3,38.9,30.00,NNE,13,0.0,0.0,60,0.00,,CLR,0.00,VWS V14.01,2013-11-13 07:25:00,
2013-11-12 23:31:00,52.3,38.9,30.00,NNE,13,0.0,0.0,60,0.00,,CLR,0.00,VWS V14.01,2013-11-13 07:31:00,
2013-11-12 23:36:00,52.1,38.7,30.00,NNE,12,0.0,0.0,60,0.00,,CLR,0.00,VWS V14.01,2013-11-13 07:36:00,
2013-11-12 23:42:00,52.0,38.5,30.00,NNE,12,0.0,0.0,60,0.00,,CLR,0.00,VWS V14.01,2013-11-13 07:42:00,
2013-11-12 23:48:00,52.5,40.7,30.00,West,279,0.0,0.0,64,0.00,,CLR,0.00,VWS V14.01,2013-11-13 07:48:00,
2013-11-12 23:53:00,52.3,41.3,30.00,West,279,0.0,0.0,66,0.00,,CLR,0.00,VWS V14.01,2013-11-13 07:53:00,
2013-11-12 23:59:00,52.1,41.1,30.00,West,279,0.0,0.0,66,0.00,,CLR,0.00,VWS V14.01,2013-11-13 07:59:00,